{"data":{"norad_id":55327,"epoch":"2026-05-25T05:29:59.093088Z","epoch_age_seconds":52291,"freshness":"FRESH","line1":"1 55327U 23011D   26145.22915617  .00004393  00000+0  19269-3 0  9998","line2":"2 55327  40.4985 124.4191 0004302 235.7086 124.3316 15.22695743184351","mean_motion":15.22695743,"eccentricity":0.0004302,"inclination_deg":40.4985,"raan_deg":124.4191,"arg_perigee_deg":235.7086,"mean_anomaly_deg":124.3316,"bstar":0.00019269,"rev_number":18435,"period_min":94.56912233582,"perigee_km":494.75540752546,"apogee_km":500.67138920822,"semimajor_km":6875.8503983668,"source":"CELESTRAK","updated_at":"2026-05-25T13:38:24.930405Z"}}